Notices

What's New in latest Release from April 7th, 2021:

- Updated Glossary, including Speed of Maximum Gust, and Total Hourly Precipitation

- Updated national and regional climate services offices contacts and prices information

- Addition of station inventory lists for 1981-2010, 1971-2000, and 1961-1990 Normals.

If you haven't already, please take our survey and provide feedback about our website: https://eccc.sondage-survey.ca/f/LanguageSelection.aspx?s=442ca660-fcf1-47c0-95a9-59707d6fd709

Hourly Data Report for November 29, 2019

PINAWA
MANITOBA
Current Station Operator: ECCC - MSC

50°10'38.020" N
96°03'53.000" W
268.00 m
503B1ER
71448
WEA

Download Data

Hourly Data (November 2019)
Hourly Data Report for November 29, 2019
TIME
LST
Temp Definition
°C
Dew Point Definition
°C
Rel Hum Definition
%
Precip. Amount Definition
mm

Wind Dir Definition
10's deg

Wind Spd Definition
km/h
Visibility Definition
km
Stn Press Definition
kPa
Hmdx Definition


Wind Chill Definition


Weather Definition


00:00 -7.3 LegendMM LegendMM 0.0 11 10   99.94   -12 LegendNANA
01:00 -7.2 LegendMM LegendMM 0.0 12 10   99.90   -12 LegendNANA
02:00 -7.3 LegendMM LegendMM 0.0 11 9   99.85   -12 LegendNANA
03:00 -7.2 LegendMM LegendMM 0.0 11 9   99.83   -12 LegendNANA
04:00 -7.1 LegendMM LegendMM 0.0 11 8   99.77   -11 LegendNANA
05:00 -7.1 LegendMM LegendMM 0.0 12 10   99.70   -12 LegendNANA
06:00 -6.9 LegendMM LegendMM 0.0 11 9   99.74   -11 LegendNANA
07:00 -6.8 LegendMM LegendMM 0.0 11 11   99.62   -12 LegendNANA
08:00 -6.7 LegendMM LegendMM 0.0 13 10   99.57   -11 LegendNANA
09:00 -6.2 LegendMM LegendMM 0.0 12 9   99.56   -10 LegendNANA
10:00 -5.1 LegendMM LegendMM 0.0 13 9   99.54   -9 LegendNANA
11:00 -4.4 LegendMM LegendMM 0.0 13 9   99.55   -8 LegendNANA
12:00 -3.7 LegendMM LegendMM 0.0 12 8   99.41   -7 LegendNANA
13:00 -3.6 LegendMM LegendMM 0.0 10 12   99.35   -8 LegendNANA
14:00 -3.3 LegendMM LegendMM 0.0 10 10   99.25   -7 LegendNANA
15:00 -3.1 LegendMM LegendMM 0.0 11 11   99.26   -7 LegendNANA
16:00 -2.8 LegendMM LegendMM 0.0 11 10   99.21   -7 LegendNANA
17:00 -2.6 LegendMM LegendMM 0.0 11 8   99.19   -6 LegendNANA
18:00 -2.5 LegendMM LegendMM 0.0 12 7   99.16   -5 LegendNANA
19:00 -2.3 LegendMM LegendMM 0.0 13 10   99.10   -6 LegendNANA
20:00 -2.2 LegendMM LegendMM 0.0 12 10   99.06   -6 LegendNANA
21:00 -1.9 LegendMM LegendMM 0.0 9 7   99.07   -5 LegendNANA
22:00 -1.9 LegendMM LegendMM 0.0 11 8   99.02   -5 LegendNANA
23:00 -1.7 LegendMM LegendMM 0.0 12 6   99.01   -4 LegendNANA

Notes on Data Quality.

Legend

  • E = Estimated
  • M = Missing
  • NA = Not Available*
  • [empty] = Indicates an unobserved value
Date modified: